Weather History for HEBA - May, 2013

Change the Weather History Date:

Saturday, May 18, 2013

  Actual Average (HEAX) Record (HEAX)
Temperature  
Mean Temperature 80 °F -  
Max Temperature 95 °F 78 °F 102 °F (1997)
Min Temperature 66 °F 62 °F 58 °F (2012)
Cooling Degree Days 16    
Growing Degree Days 30 (Base 50)    
Moisture  
Dew Point 62 °F    
Average Humidity 58    
Maximum Humidity 88    
Minimum Humidity 28    
Precipitation  
Precipitation 0.00 in - - ()
Sea Level Pressure  
Sea Level Pressure 29.98 in    
Wind  
Wind Speed 6 mph ()    
Max Wind Speed 14 mph    
Max Gust Speed -    
Averages and records for this station are not official NWS values.
T = Trace of Precipitation, MM = Missing Value Source: Averaged Metar Reports

Daily Weather History Graph

Daily Weather History Graph

Search for Another Location

Airport or City:

Trip Planner

Search our weather history database for the weather conditions in past years. The results will help you decide how hot, cold, wet, or windy it might be!

Date:

Astronomy

May. 18, 2013 Rise Set
Actual Time 5:04 AM EET 6:51 PM EET
Civil Twilight 4:37 AM EET 7:18 PM EET
Nautical Twilight 4:05 AM EET 7:50 PM EET
Astronomical Twilight 3:31 AM EET 8:24 PM EET
Moon 12:02 PM EET (5/18) 12:16 AM EET (5/18)
Length of Visible Light 14h 40m
Length of Day
13h 47m
First Quarter, 52% of the Moon is Illuminated
May 18
First Quarter
May 25
Full
May 31
Last Quarter
Jun 8
New
Jun 16
First Quarter

Hourly Weather History & Observations

Time (EET) Temp. Heat Index Dew Point Humidity Pressure Visibility Wind Dir Wind Speed Gust Speed Precip Events Conditions
12:00 AM 71.6 °F - 64.4 °F 78% 30.04 in - ENE 8.1 mph - N/A   Clear
1:00 AM 69.8 °F - 64.4 °F 83% 30.01 in - East 6.9 mph - N/A   Clear
2:00 AM 69.8 °F - 66.2 °F 88% 29.98 in - ESE 9.2 mph - N/A   Clear
3:00 AM 68.0 °F - 62.6 °F 83% 29.95 in - ESE 9.2 mph - N/A   Clear
4:00 AM 66.2 °F - 60.8 °F 83% 29.95 in - ESE 4.6 mph - N/A   Clear
5:00 AM 66.2 °F - 60.8 °F 83% 29.98 in - East 4.6 mph - N/A   Clear
6:00 AM 66.2 °F - 62.6 °F 88% 30.01 in - ESE 4.6 mph - N/A   Clear
7:00 AM 69.8 °F - 60.8 °F 73% 30.01 in - Calm Calm - N/A   Clear
8:00 AM 73.4 °F - 64.4 °F 73% 30.04 in - ENE 6.9 mph - N/A   Clear
9:00 AM 77.0 °F - 62.6 °F 61% 30.06 in - NNE 5.8 mph - N/A   Clear
10:00 AM 80.6 °F 81.5 °F 60.8 °F 51% 30.04 in - ENE 13.8 mph - N/A   Clear
11:00 AM 84.2 °F 83.8 °F 59.0 °F 42% 30.04 in - East 13.8 mph - N/A   Clear
12:00 PM 87.8 °F 87.1 °F 59.0 °F 38% 30.01 in - East 11.5 mph - N/A   Clear
1:00 PM 89.6 °F 88.1 °F 57.2 °F 33% 30.01 in - ENE 10.4 mph - N/A   Clear
2:00 PM 91.4 °F 89.4 °F 55.4 °F 29% 29.98 in - NE 4.6 mph - N/A   Clear
3:00 PM 95.0 °F 93.7 °F 57.2 °F 28% 29.95 in - ENE 5.8 mph - N/A   Clear
4:00 PM 91.4 °F 93.2 °F 64.4 °F 41% 29.95 in - North 9.2 mph - N/A   Clear
5:00 PM 91.4 °F 92.1 °F 62.6 °F 38% 29.92 in - North 6.9 mph - N/A   Clear
6:00 PM 89.6 °F 89.5 °F 60.8 °F 38% 29.92 in - North 6.9 mph - N/A   Clear
7:00 PM 89.6 °F 90.1 °F 62.6 °F 40% 29.92 in - North 5.8 mph - N/A   Clear
8:00 PM 84.2 °F 85.6 °F 64.4 °F 51% 29.92 in - North 5.8 mph - N/A   Clear
9:00 PM 80.6 °F 81.1 °F 59.0 °F 48% 29.95 in - NNE 6.9 mph - N/A   Clear
10:00 PM 78.8 °F - 62.6 °F 57% 29.95 in - ENE 5.8 mph - N/A   Clear
11:00 PM 77.0 °F - 64.4 °F 65% 29.95 in - East 5.8 mph - N/A   Clear